Regional Weather Roundup
Issued by NWS Charleston, SC

Current Version | Previous Version | Graphics & Text | Print | Product List | Glossary On
Versions: 1 2 3 4 5 6 7 8 9 10 11 12 13 14 15 16 17 18 19 20 21 22 23 24 25 26 27 28 29 30 31 32 33 34 35 36 37 38 39 40 41 42 43 44 45 46 47 48 49 50
000 ASUS42 KCHS 281728 RWRCHS REGIONAL WEATHER ROUNDUP NATIONAL WEATHER SERVICE CHARLESTON SC 100 PM EDT SUN AUG 28 2016 NOTE: "FAIR" INDICATES FEW OR NO CLOUDS BELOW 12,000 FEET WITH NO SIGNIFICANT WEATHER AND/OR OBSTRUCTIONS TO VISIBILITY. NOT ALL STATIONS ARE QUALITY CONTROLLED. USE DATA WITH CAUTION... ESPECIALLY DEWPOINT OBSERVATIONS. SCZ027-030-031-034>040-042>050-281800- ...SOUTHEAST SOUTH CAROLINA... CITY SKY/WX TMP DP RH WIND PRES REMARKS N CHARLESTON PTSUNNY 89 73 59 NE12 30.10F HX 97 WATERFRONT PRK N/A 87 76 69 E7 30.09S HX 97 MOUNT PLEASANT PTSUNNY 86 77 74 CALM 30.10F HX 97 JOHNS ISLAND FAIR 90 77 66 E13 30.10S HX 102 PINOPOLIS N/A 84 75 74 NE7 30.05F HX 92 MONCKS CORNER FAIR 88 73 62 N8 30.11S HX 96 SUMMERVILLE PTSUNNY 90 73 58 NE6 30.11F HX 98 BEAUFORT MCAS MOSUNNY 90 73 57 E10 30.10F HX 98 BEAUFORT ARPT PTSUNNY 88 73 62 E12G18 30.09S HX 96 HILTON HEAD IS PTSUNNY 93 77 59 E9G16 30.11S HX 107 WALTERBORO PTSUNNY 90 72 55 NE7 30.11F HX 96 ALLENDALE FAIR 90 68 48 E7 30.10S HX 93 ...SOUTHERN MIDLANDS AND PEE DEE... CITY SKY/WX TMP DP RH WIND PRES REMARKS GEORGETOWN FAIR 86 73 66 E10 30.12F THUNDER HX 93 KINGSTREE PTSUNNY 90 64 43 NE9 30.11F HX 91 ORANGEBURG MOSUNNY 90 69 50 E12 30.13F HX 94 BARNWELL NOT AVBL AIKEN FAIR 90 70 51 N12 30.17F HX 95 MANNING FAIR 88 72 58 N12 30.12F HX 94 COLUMBIA PTSUNNY 92 68 45 E13 30.13F HX 96 SUMTER MOSUNNY 89 70 52 N16 30.12F HX 94 FLORENCE MOSUNNY 92 69 47 NE10 30.14F HX 97 MYRTLE BEACH PTSUNNY 88 70 55 NE18 30.13F HX 92 N MYRTLE BEACH PTSUNNY 85 74 69 E10 30.11F HX 92 $$ GAZ063-065-086>088-099>101-113>116-118-119-134>141-150-281800- ...SOUTHEAST GEORGIA... CITY SKY/WX TMP DP RH WIND PRES REMARKS SAVANNAH ARPT PTSUNNY 91 70 49 E12G21 30.09F HX 96 HUNTER AAF SUNNY 90 73 58 E16 30.06F HX 98 FORT STEWART SUNNY 91 68 46 VRB3 30.06F HX 95 STATESBORO PTSUNNY 90 72 55 E7 30.10F HX 96 SYLVANIA NOT AVBL CLAXTON FAIR 91 72 53 NE9 30.09F HX 97 ...CSRA...CENTRAL AND FAR SOUTHEAST GEORGIA... CITY SKY/WX TMP DP RH WIND PRES REMARKS THOMSON MOSUNNY 89 74 60 MISG 30.18F HX 98 AUGUSTA-BUSH PTSUNNY 91 71 51 NE9 30.12F HX 97 AUGUSTA-DANIEL MOSUNNY 91 71 51 NE6 30.14F HX 97 SWAINSBORO PTSUNNY 91 64 40 NE12 30.11F HX 93 VIDALIA MOSUNNY 91 73 55 E12 30.09F HX 100 EASTMAN FAIR 95 46 18 E9 30.11F HX 91 HAZLEHURST FAIR 92 72 51 E6 30.07F HX 98 ALMA MOSUNNY 90 71 53 VRB7 30.08F HX 96 WAYCROSS N/A 93 75 55 E13 30.05F HX 104 JESUP PTSUNNY 91 77 62 E15 30.07F HX 105 BAXLEY PTSUNNY 90 75 62 E7 30.07F HX 100 BRUNSWICK PTSUNNY 90 77 66 E15G21 30.08S HX 102 SAINT SIMONS MOSUNNY 87 75 67 NE15 30.07F HX 96 $$ SCZ027-028-034-036>038-045-046-048>050-GAZ119-141-281800- ...LAKE AND SUPPLEMENTAL COASTAL OBSERVATIONS... STATION/POSITION TIME TEMP WIND PRES WAVE SWELL AIR SEA DIR/SP/G HT/PER HT/PER/DIR (UTC) (F) (DEG/KT/KT) (MB) (FT/S) (FT/S/D) WINYAH BAY 1645 82 70/ 10 1019.0S LAKE MURRAY 1600 86 30/ 1/ 3 1020.7F ACE BASIN NERRS 1615 89 60/ 4 1019.0F FORT PULASKI 1700 84 86 70/ 13/ 15 1019.5F SAPELO ISLAND 1700 89 70/ 12 1018.0F $$ ANZ835-935-AMZ111-154-330-350-352-354-370-450-454-472-281800- ...C-MAN AND BUOY OBSERVATIONS... STATION/POSITION TIME TEMP WIND PRES WAVE SWELL AIR SEA DIR/SP/G HT/PER HT/PER/DIR (UTC) (F) (DEG/KT/KT) (MB) (FT/S) (FT/S/D) BUOY 41004 1650 83 85 60/ 10/ 14 1018.5F 4/ 9 3/120/ 9 BUOY 41008 1650 83 85 70/ 14/ 16 1018.4S 4/ 8 2/140/ 8 FOLLY BEACH CMAN 1700 85 60/ 12/ 13 1019.4F CAPERS NEARSHORE 1708 83 84 70/ 14/ 16 1019.1F FRIPP NEARSHORE 1708 84 86 70/ 14/ 17 1018.6F STATION/POSITION TIME TEMP WIND PRES WAVE SWELL AIR SEA DIR/SP/G HT/PER HT/PER/DIR (UTC) (F) (DEG/KT/KT) (MB) (FT/S) (FT/S/D) 5E ST. MARYS GA 1701 85 N/A 4/ 8 FRYING PAN BUOY 1700 84 84 70/ 8/ 10 1019.3F BUOY 41025 1650 84 85 80/ 10/ 12 1020.4F 3/ 8 2/100/ 8 CAPE LOOKOUT NC 1700 83 50/ 7/ 8 1019.9F BUOY 41002 1650 82 84 40/ 12/ 14 1018.0F 3/ 8 3/110/ 8 BUOY 41010 NOT AVBL ST AUGUSTINE FL 1700 82 85 40/ 15/ 16 1018.0F $$

USA.gov is the U.S. government's official web portal to all federal, state and local government web resources and services.